This is the latest recevied weather packets stored in our database for station/object N8QQQ. If no packets are shown the sender has not sent any weather packets the latest 10 day(s).
| Time | Temp. | Humidity | Pressure | Rain* | Wind** | Luminosity | Snow |
|---|---|---|---|---|---|---|---|
| 1777861785 | 3.33° C | 69% | 1002.2 hPa | 0 mm | - | 0 W/m² | - |
| 1777861481 | 3.33° C | 72% | 1002.4 hPa | 0 mm | - | 0 W/m² | - |
| 1777861178 | 3.33° C | 68% | 1002.4 hPa | 0 mm | - | 0 W/m² | - |
| 1777860875 | 3.89° C | 68% | 1002.2 hPa | 0 mm | - | 0 W/m² | - |
| 1777860572 | 3.89° C | 69% | 1002 hPa | 0 mm | - | 0 W/m² | - |
| 1777860269 | 4.44° C | 69% | 1002.4 hPa | 0 mm | - | 0 W/m² | - |
| 1777859966 | 5° C | 69% | 1002.4 hPa | 0 mm | - | 0 W/m² | - |
| 1777859661 | 5° C | 65% | 1002.2 hPa | 0 mm | - | 0 W/m² | - |
| 1777859358 | 5.56° C | 62% | 1002.4 hPa | 0 mm | - | 0 W/m² | - |
| 1777859054 | 6.11° C | 59% | 1002.5 hPa | 0 mm | - | 0 W/m² | - |
| 1777858751 | 6.67° C | 56% | 1002.4 hPa | 0 mm | - | 0 W/m² | - |
| 1777858450 | 7.78° C | 51% | 1002.4 hPa | 0 mm | - | 0 W/m² | - |
| 1777858145 | 8.33° C | 47% | 1002.4 hPa | 0 mm | - | 0 W/m² | - |
| 1777857843 | 9.44° C | 39% | 1002.4 hPa | 0 mm | - | 0 W/m² | - |
| 1777857540 | 10.56° C | 35% | 1002.2 hPa | 0 mm | - | 0 W/m² | - |
| 1777857237 | 11.67° C | 34% | 1002.5 hPa | 0 mm | - | 0 W/m² | - |
| 1777856933 | 11.67° C | 29% | 1002.2 hPa | 0 mm | - | 1 W/m² | - |
| 1777856629 | 12.22° C | 29% | 1002.5 hPa | 0 mm | - | 1 W/m² | - |
| 1777856325 | 12.22° C | 28% | 1002.6 hPa | 0 mm | - | 2 W/m² | - |
| 1777856022 | 12.78° C | 27% | 1002.5 hPa | 0 mm | - | 3 W/m² | - |
| 1777855719 | 12.78° C | 27% | 1002.4 hPa | 0 mm | - | 5 W/m² | - |
| 1777855417 | 12.78° C | 27% | 1002.6 hPa | 0 mm | - | 6 W/m² | - |
| 1777855113 | 13.33° C | 27% | 1002.4 hPa | 0 mm | - | 7 W/m² | - |
| 1777854810 | 13.33° C | 27% | 1002.5 hPa | 0 mm | - | 9 W/m² | - |
| 1777854507 | 13.89° C | 26% | 1002.2 hPa | 0 mm | - | 11 W/m² | - |
* Rain latest hour (hover to see other rain measurements)
** Current wind speed in m/s (hover to see current wind gust speed)